[[{"header":{"parameterUnit":"m.s-1","parameterCategory":1,"la1":30.2991,"la2":30.254,"lo1":-89.0895,"lo2":-89.0444,"dy":0.0017,"dx":0.0017,"nx":28,"ny":28,"refTime":"2024-08-02T03:00:00:Z","depth":0,"parameterNumber":2,"parameterNumberName":"U-component_of_WINDS"},"data":[0,0,0,0,0,0,0,0,0,0,0,0,0,0,0,0,0,0,0,0,0,0,0,0,0,0,0,0,0,0,0,0,0,0,0,0,0,0,0,0,0,0,0,0,0,0,0,0,0,0,0,0,0,0,0,0,0,0,1.0699,1.0699,0,1.075,1.075,1.0751,1.075,1.075,1.0749,1.0748,1.0804,1.0806,1.0808,0,0,0,0,0,0,0,0,0,0,0,0,0,1.0601,1.0603,1.0698,1.0699,1.07,1.075,1.075,1.0751,1.0751,1.075,1.0749,1.0748,1.0803,1.0806,1.0808,0,0,0,0,0,0,0,0,0,0,0,0,0,1.0647,1.0604,1.0698,1.0705,1.0707,1.075,1.075,1.0751,1.0751,1.075,1.0749,1.0748,1.0802,1.0805,1.0808,1.0849,0,0,1.0818,1.0819,0,0,0,0,0,0,0,0,1.0645,1.0651,1.0704,1.0705,1.0706,1.0743,1.0736,1.0784,1.0751,1.0734,1.0748,1.0747,1.0784,1.0789,1.0801,1.0851,1.0853,1.0818,1.082,1.0822,1.0823,0,0,0,0,0,0,0,1.0641,1.0649,1.0719,1.0705,1.0706,1.0706,1.0712,1.0745,1.0765,1.0735,1.0736,1.0741,1.0785,1.0798,1.0802,1.0854,1.0818,1.0821,1.0823,1.0824,1.0938,1.0939,0,0,0,0,0,0,1.0636,1.0646,1.0717,1.072,1.0672,1.0709,1.0715,1.0732,1.0764,1.0768,1.0742,1.0741,1.0793,1.0799,1.0804,1.0852,1.0822,1.0825,1.0826,1.0937,1.0938,1.094,0,0,0,0,0,0,1.0634,1.0643,1.0715,1.0683,1.0692,1.0712,1.0731,1.0734,1.0747,1.0769,1.0773,1.0752,1.0792,1.08,1.0837,1.0854,1.0826,1.0829,1.0936,1.0937,1.0939,1.0949,0,0,0,0,0,0,1.0632,1.0642,1.0657,1.0683,1.0694,1.0747,1.0732,1.0735,1.0752,1.0751,1.0779,1.0783,1.0792,1.0832,1.084,1.0858,1.0831,1.0934,1.0936,1.0938,1.0947,1.0951,1.0954,0,0,0,0,0,1.0628,1.0659,1.0658,1.0667,1.0713,1.0748,1.0754,1.0763,1.0753,1.0769,1.0783,1.0782,1.0851,1.0836,1.0845,1.0864,1.0933,1.0936,1.0938,1.0946,1.095,1.0954,0,0,0,0,0,0,1.0636,1.0663,1.0662,1.0702,1.0722,1.0748,1.0768,1.0768,1.0792,1.079,1.0801,1.0808,1.0844,1.0858,1.0841,1.0903,1.0891,1.0895,1.0893,1.0898,1.0901,1.0897,1.0834,0,0,0,0,0,1.0642,1.0667,1.0689,1.0723,1.0733,1.0748,1.0764,1.0769,1.079,1.0799,1.0817,1.0838,1.0865,1.0882,1.0908,1.0949,1.0954,1.0966,1.0969,1.0972,1.0976,1.0997,1.1002,1.0948,1.0948,1.0948,0,0,1.0656,1.0673,1.0689,1.0725,1.0741,1.0767,1.0756,1.0784,1.0803,1.0804,1.084,1.0853,1.0878,1.0917,1.0935,1.0929,1.0992,1.0975,1.0977,1.098,1.1,1.1005,1.101,1.095,1.0949,1.0949,0,0,1.0693,1.0709,1.0738,1.0754,1.0778,1.0788,1.0795,1.082,1.0828,1.0863,1.0864,1.0887,1.0933,1.095,1.0965,1.1007,1.1006,1.1015,1.1032,1.1053,1.1057,1.1061,1.1075,1.108,1.1018,1.1018,1.1018,0,1.0707,1.0745,1.0753,1.0781,1.0796,1.0797,1.0826,1.0841,1.0873,1.0884,1.0877,1.0932,1.0949,1.0991,1.1001,1.1014,1.1021,1.1012,1.1056,1.106,1.1063,1.1077,1.1082,1.1019,1.1019,1.1019,1.1019,0,1.076,1.0787,1.0807,1.0836,1.0854,1.0883,1.0895,1.0912,1.0915,1.0925,1.0961,1.0981,1.101,1.102,1.1024,1.1063,1.1058,1.1053,1.1041,1.1069,1.1082,1.1087,1.102,1.102,1.102,1.102,0,0,1.0805,1.0837,1.0844,1.0857,1.0883,1.0903,1.0931,1.0958,1.0972,1.0994,1.1017,1.1055,1.105,1.1066,1.1072,1.109,1.1121,1.1083,1.1084,1.1089,1.1163,1.1166,1.1172,1.112,1.1121,1.1122,1.116,0,1.0845,1.0894,1.0901,1.0944,1.0968,1.0968,1.0992,1.101,1.1021,1.1043,1.1054,1.108,1.1072,1.1082,1.11,1.1113,1.1136,1.1111,1.1142,1.1143,1.1136,1.1179,1.1182,1.1217,1.1166,1.1166,1.1167,0,1.0898,1.0919,1.0964,1.0985,1.0996,1.1017,1.1042,1.1063,1.1083,1.1089,1.1107,1.111,1.1139,1.1124,1.1164,1.1146,1.116,1.1168,1.117,1.1173,1.1157,1.1182,1.1229,1.1234,1.1175,1.1175,1.1174,0,1.0925,1.0965,1.0997,1.1007,1.1033,1.1048,1.106,1.1079,1.1094,1.1116,1.1126,1.1151,1.1164,1.1184,1.1193,1.1182,1.1231,1.1219,1.1237,1.1237,1.1248,1.1247,1.1296,1.1257,1.1257,1.1257,1.1257,0,1.0968,1.0995,1.1009,1.1028,1.1059,1.1066,1.1096,1.1107,1.1124,1.1146,1.1148,1.1168,1.118,1.1202,1.121,1.124,1.1247,1.1252,1.1254,1.1252,1.1251,1.1261,1.1258,1.1258,1.1258,1.1258,1.1257,0,1.1003,1.1013,1.1048,1.1069,1.1075,1.1096,1.1114,1.1133,1.1142,1.1169,1.1176,1.1191,1.1217,1.1228,1.126,1.1265,1.13,1.13,1.1293,1.1293,1.1311,1.1309,1.1368,1.1376,1.1332,1.1332,1.1332,0,1.103,1.1051,1.1073,1.1087,1.1099,1.1122,1.1137,1.1145,1.1161,1.1185,1.12,1.1226,1.1246,1.1287,1.1301,1.1326,1.1326,1.1345,1.133,1.1327,1.1325,1.1324,1.1325,1.1348,1.1348,1.1349,1.1349,0,1.1076,1.1079,1.1101,1.1123,1.1141,1.1159,1.1178,1.1189,1.12,1.1217,1.1243,1.1259,1.129,1.1315,1.134,1.1352,1.1352,1.1354,1.1359,1.1357,1.1351,1.1354,1.13,1.1352,1.1352,1.1352,1.1352,1.1352,1.1107,1.1125,1.1143,1.1167,1.1181,1.1197,1.1215,1.1226,1.1247,1.1273,1.1277,1.1304,1.1323,1.1355,1.1368,1.139,1.1385,1.1393,1.1395,1.1397,1.1397,1.1348,1.1394,1.1394,1.1394,1.1394,1.1394,0,1.1153,1.1164,1.1185,1.1209,1.1227,1.1225,1.1244,1.126,1.1283,1.13,1.132,1.1349,1.1373,1.1388,1.1412,1.1426,1.1426,1.1432,1.1431,1.1433,1.1401,1.1393,1.1431,1.1431,1.1431,1.1431,1.1431,1.1431,1.1178,1.1208,1.1213,1.125,1.1261,1.1287,1.1298,1.1313,1.1326,1.1358,1.1377,1.1386,1.1403,1.1427,1.1449,1.1453,1.1461,1.1466,1.147,1.1439,1.1436,1.1432,1.1425,1.1468,1.1468,1.15,1.1501,1.1501]},{"header":{"parameterUnit":"m.s-1","parameterCategory":1,"la1":30.2991,"la2":30.254,"lo1":-89.0895,"lo2":-89.0444,"dy":0.0017,"dx":0.0017,"nx":28,"ny":28,"refTime":"2024-08-02T03:00:00:Z","depth":0,"parameterNumber":3,"parameterNumberName":"V-component_of_WINDS"},"data":[0,0,0,0,0,0,0,0,0,0,0,0,0,0,0,0,0,0,0,0,0,0,0,0,0,0,0,0,0,0,0,0,0,0,0,0,0,0,0,0,0,0,0,0,0,0,0,0,0,0,0,0,0,0,0,0,0,0,3.9914,3.9913,0,3.9862,3.9862,3.9861,3.9862,3.9863,3.9864,3.9864,3.9805,3.9803,3.9801,0,0,0,0,0,0,0,0,0,0,0,0,0,4.0005,4.0004,3.9914,3.9913,3.9913,3.9863,3.9862,3.9861,3.9862,3.9863,3.9864,3.9865,3.9806,3.9803,3.9801,0,0,0,0,0,0,0,0,0,0,0,0,0,3.9961,4.0003,3.9914,3.9907,3.9906,3.9863,3.9862,3.9861,3.9862,3.9863,3.9864,3.9865,3.9807,3.9804,3.98,3.9758,0,0,3.979,3.9788,0,0,0,0,0,0,0,0,3.9963,3.9957,3.9909,3.9908,3.9906,3.987,3.9872,3.9826,3.9862,3.9879,3.9864,3.9866,3.9825,3.9821,3.9808,3.9755,3.9753,3.979,3.9788,3.9786,3.9785,0,0,0,0,0,0,0,3.9966,3.9959,3.9893,3.9908,3.9907,3.9904,3.9899,3.9864,3.9846,3.9877,3.9877,3.9871,3.9825,3.9812,3.9807,3.9752,3.979,3.9787,3.9785,3.9783,3.9658,3.9656,0,0,0,0,0,0,3.9972,3.9962,3.9895,3.9892,3.9938,3.9902,3.9896,3.988,3.9847,3.9843,3.9871,3.9872,3.9817,3.9811,3.9805,3.9751,3.9786,3.9783,3.9781,3.9659,3.9657,3.9656,0,0,0,0,0,0,3.9974,3.9966,3.9897,3.9927,3.9918,3.9899,3.9882,3.9879,3.9866,3.9842,3.9838,3.9861,3.9818,3.981,3.9769,3.9749,3.9781,3.9778,3.966,3.9658,3.9656,3.9644,0,0,0,0,0,0,3.9976,3.9967,3.9952,3.9927,3.9916,3.9865,3.988,3.9877,3.9861,3.9862,3.9832,3.9828,3.9818,3.9774,3.9766,3.9745,3.9776,3.9662,3.9659,3.9657,3.9646,3.9642,3.9638,0,0,0,0,0,3.998,3.995,3.9952,3.9943,3.9899,3.9864,3.9857,3.9849,3.9859,3.9843,3.9827,3.9829,3.9753,3.977,3.9761,3.9738,3.9663,3.966,3.9657,3.9648,3.9642,3.9638,0,0,0,0,0,0,3.9972,3.9947,3.9948,3.991,3.9889,3.9864,3.9844,3.9844,3.9818,3.982,3.9808,3.9801,3.976,3.9745,3.9765,3.9694,3.9709,3.9704,3.9705,3.97,3.9696,3.9699,3.9773,0,0,0,0,0,3.9966,3.9942,3.992,3.9888,3.9878,3.9863,3.9847,3.9842,3.9819,3.981,3.9791,3.9767,3.9737,3.9718,3.969,3.9644,3.9636,3.9624,3.962,3.9617,3.9612,3.9583,3.9577,3.9646,3.9646,3.9646,0,0,3.9953,3.9936,3.9921,3.9886,3.987,3.9842,3.9855,3.9826,3.9805,3.9805,3.9765,3.9751,3.9722,3.9679,3.9658,3.9665,3.9591,3.9613,3.9611,3.9607,3.9579,3.9573,3.9567,3.9644,3.9644,3.9645,0,0,3.9915,3.9901,3.9872,3.9855,3.983,3.982,3.9813,3.9787,3.9778,3.9739,3.9737,3.971,3.9661,3.964,3.9623,3.9575,3.9573,3.9566,3.9544,3.9516,3.9511,3.9506,3.9486,3.9479,3.9561,3.9561,3.9561,0,3.9901,3.9862,3.9856,3.9827,3.981,3.981,3.9778,3.9762,3.9728,3.9715,3.9724,3.966,3.9641,3.9591,3.9579,3.9566,3.9555,3.9568,3.9513,3.9508,3.9503,3.9483,3.9476,3.956,3.956,3.956,3.9561,0,3.9845,3.9817,3.9796,3.9765,3.9746,3.9716,3.9702,3.9683,3.968,3.9667,3.9625,3.9603,3.9569,3.9557,3.9553,3.9505,3.951,3.9516,3.953,3.9495,3.9477,3.9469,3.9559,3.9559,3.956,3.956,0,0,3.98,3.9766,3.9758,3.9742,3.9714,3.9692,3.966,3.9628,3.9611,3.9587,3.9558,3.9515,3.952,3.95,3.9493,3.947,3.9429,3.9478,3.9477,3.9467,3.9371,3.9365,3.9357,3.9429,3.9428,3.9426,3.9373,0,3.9757,3.9703,3.9696,3.9646,3.9619,3.9618,3.959,3.9568,3.9555,3.9528,3.9513,3.9482,3.9493,3.948,3.9457,3.9439,3.9409,3.9443,3.9398,3.9396,3.9403,3.9348,3.9342,3.9292,3.9366,3.9364,3.9364,0,3.9699,3.9675,3.9624,3.9597,3.9586,3.9561,3.953,3.9505,3.9479,3.9471,3.9449,3.9444,3.9408,3.9426,3.9373,3.9396,3.9377,3.9365,3.9363,3.9356,3.9376,3.9337,3.9276,3.9268,3.9353,3.9353,3.9354,0,3.9668,3.9623,3.9586,3.9573,3.9542,3.9524,3.951,3.9485,3.9466,3.9438,3.9424,3.9392,3.9374,3.9347,3.9333,3.9348,3.928,3.9297,3.9269,3.9269,3.9253,3.9254,3.9186,3.9246,3.9246,3.9246,3.9246,0,3.9619,3.9587,3.9571,3.9548,3.951,3.9501,3.9464,3.945,3.9427,3.9399,3.9396,3.9369,3.9353,3.9322,3.9311,3.9267,3.9259,3.9249,3.9246,3.9248,3.9249,3.9234,3.9236,3.9244,3.9244,3.9245,3.9245,0,3.9578,3.9566,3.9525,3.9499,3.9492,3.9465,3.9441,3.9417,3.9405,3.9368,3.9359,3.9338,3.9302,3.9286,3.9241,3.9233,3.9182,3.9183,3.9191,3.919,3.9161,3.9163,3.9079,3.9066,3.9137,3.9136,3.9136,0,3.9546,3.9522,3.9493,3.9475,3.9461,3.9432,3.9412,3.9401,3.938,3.9347,3.9326,3.929,3.9261,3.9202,3.9181,3.9146,3.9144,3.9117,3.9138,3.914,3.9139,3.914,3.9136,3.9112,3.9111,3.9111,3.911,0,3.9491,3.9486,3.9459,3.9429,3.9407,3.9382,3.9358,3.9343,3.9328,3.9304,3.9268,3.9245,3.9199,3.9162,3.9125,3.9107,3.9104,3.9104,3.9095,3.9095,3.91,3.9094,3.9178,3.9105,3.9106,3.9106,3.9106,3.9107,3.9451,3.9428,3.9404,3.9373,3.9355,3.9332,3.9307,3.9292,3.9262,3.9225,3.922,3.9181,3.9152,3.9102,3.9083,3.9049,3.9055,3.9043,3.904,3.9036,3.9033,3.9108,3.9043,3.9043,3.9043,3.9043,3.9043,0,3.9393,3.9377,3.9349,3.9316,3.9291,3.9294,3.9267,3.9245,3.9211,3.9186,3.9157,3.9114,3.9077,3.9053,3.9016,3.8993,3.8991,3.8983,3.8984,3.8979,3.9031,3.9041,3.8986,3.8986,3.8986,3.8986,3.8986,3.8986,3.9359,3.932,3.9312,3.9261,3.9245,3.9208,3.9192,3.917,3.9149,3.9102,3.9072,3.9058,3.9032,3.8992,3.8957,3.8951,3.8936,3.8927,3.8921,3.897,3.8975,3.8981,3.899,3.8925,3.8925,3.887,3.887,3.887]}]]